User: anonymous   Login
Location: ?????????
(53.2086°N, 54.0693°E)
Time: 08:07:36
(UTC+00:00)
Language:

Cosmos 1634 Rocket - Orbit

View from above orbital plane
View from above orbital plane
View from above satellite
View from above satellite

Ground track
Ground track

The orbit data is extracted from the following two-line orbital elements,

1 15598U 85022B   20057.11482013 -.00000027  00000-0 -43252-4 0  9990
2 15598  82.9341  95.7541 0020945 235.2688 151.9322 13.76588832755834
Epoch (UTC): 26 February 2020 02:45:20
Eccentricity: 0.0020945
inclination: 82.9341°
perigee height: 960 km
apogee height: 991 km
right ascension of ascending node: 95.7541°
argument of perigee: 235.2688°
revolutions per day: 13.76588832
mean anomaly at epoch: 151.9322°
orbit number at epoch: 75583

The dashed part of the orbit path shows where the satellite is in the earth's shadow,  

DLR